Home > Weather > Little Rock > Past weeks

Flag for USA Past Weather in Little Rock, Arkansas, USA — Yesterday and Last 2 Weeks

Now
83 °F

Passing clouds.


Feels Like: 88 °F
Forecast: 78 / 96 °F
Wind: 3 mph from Southwest

Location: Adams Field

Current Time: Jun 26, 2016 at 1:39:44 AM

Latest Report: Jun 26, 2016 at 12:53 AM


Visibility: 10 mi

Pressure: 30.05 "Hg

Humidity: 70%

Dew Point: 72 °F

Location of Little RockLocation

Past Weather in Little Rock — Graph

°F

Little Rock Temperature Yesterday

Maximum temperature yesterday: 95 °F (at 1:53 PM)
Minimum temperature yesterday: 76 °F (at 5:53 AM)
Average temperature yesterday: 86 °F

High & Low Weather Summary for the Past Weeks

 TemperatureHumidityPressure
High97 °F (Jun 17, 1:53 PM)91% (Jun 13, 4:53 AM)30.25 "Hg (Jun 13, 4:53 AM)
Low74 °F (Jun 11, 3:53 AM)41% (Jun 25, 1:53 PM)29.79 "Hg (Jun 14, 4:53 PM)
Average85 °F68%30.01 "Hg
* Reported Jun 10 11:53 PM — Jun 25 11:53 PM, Little Rock, Weather by CustomWeather, © 2016

Note: Actual official high and low records may vary slightly from our data, if they occured in-between our weather recording intervals... More about our weather records

Advertising

Little Rock Weather History for the Previous 24 Hours

Scroll right to see more
 ConditionsComfort  
Time TempWeatherWind HumidityBarometerVisibility
11:53 PM
Sat, Jun 25
82 °FPassing clouds.6 mph74%30.05 "Hg10 mi
10:53 PM83 °FPassing clouds.7 mph72%30.04 "Hg10 mi
9:53 PM83 °FPassing clouds.6 mph72%30.03 "Hg10 mi
8:53 PM86 °FPassing clouds.6 mph63%30.02 "Hg10 mi
7:53 PM89 °FScattered clouds.8 mph55%30.01 "Hg10 mi
6:53 PM92 °FScattered clouds.9 mph49%30.01 "Hg10 mi
5:53 PM93 °FScattered clouds.13 mph46%30.00 "Hg10 mi
4:53 PM93 °FScattered clouds.12 mph44%30.01 "Hg10 mi
3:53 PM94 °FScattered clouds.13 mph44%30.02 "Hg10 mi
2:53 PM95 °FScattered clouds.12 mph41%30.03 "Hg10 mi
1:53 PM95 °FScattered clouds.12 mph41%30.06 "Hg10 mi
12:53 PM94 °FScattered clouds.10 mph44%30.07 "Hg10 mi
11:53 AM93 °FScattered clouds.9 mph47%30.08 "Hg10 mi
10:53 AM92 °FScattered clouds.13 mph49%30.08 "Hg10 mi
9:53 AM89 °FPassing clouds.9 mph57%30.09 "Hg10 mi
8:53 AM86 °FPassing clouds.7 mph63%30.10 "Hg10 mi
7:53 AM82 °FBroken clouds.No wind74%30.09 "Hg10 mi
6:53 AM77 °FPassing clouds.5 mph88%30.07 "Hg8 mi
5:53 AM76 °FPassing clouds.No wind88%30.06 "Hg10 mi
4:53 AM78 °FPassing clouds.No wind84%30.04 "Hg10 mi
3:53 AM78 °FPassing clouds.3 mph82%30.03 "Hg10 mi
2:53 AM80 °FClear.3 mph79%30.02 "Hg10 mi
1:53 AM81 °FClear.6 mph77%30.02 "Hg10 mi
Weather by CustomWeather, © 2016

See weather overviewHow to use our weather pages